Flag for Germany Weather past 2 weeks in Ludwigsburg, Baden-Württemberg, Germany

39 °F

Passing clouds.

Feels Like: 39 °F
Forecast: 29 / 39 °F
Wind: 2 mph from North

Location: Stuttgart-Echterdingen

Current Time: Nov 26, 2015 at 7:20:40 PM

Latest Report: Nov 26, 2015 at 6:50 PM

Visibility: N/A

Pressure: 30.09 "Hg

Humidity: 93%

Dew point: 37 °F

Location of LudwigsburgLocation

Historic Weather in Ludwigsburg — Graph


Ludwigsburg temperature yesterday

Maximum temperature yesterday: 41 °F (at 12:20 PM)
Minimum temperature yesterday: 34 °F (at 2:20 AM)
Average temperature yesterday: 37 °F

Past Weeks' High & Low Weather Summary

High68 °F (Nov 16, 1:20 PM)100% (Nov 12, 2:20 AM)30.45 "Hg (Nov 12, 2:20 AM)
Low23 °F (Nov 24, 2:20 AM)23% (Nov 16, 1:20 PM)29.36 "Hg (Nov 21, 2:50 PM)
Average45 °F80%30.02 "Hg
* Reported Nov 11 6:20 PM — Nov 26 6:20 PM, Ludwigsburg, Weather by CustomWeather, © 2015

Note: Actual official high and low records may vary slightly from our data, if they occured in-between our weather recording intervals... More about our weather records


Ludwigsburg weather history for previous 24 hours

Time TempWeatherWind HumidityBarometerVisibility
6:20 PM
Thu, Nov 26
39 °FPartly cloudy.2 mph93%30.09 "HgN/A
5:50 PM39 °FPassing clouds.6 mph93%30.07 "HgN/A
5:20 PM39 °FSprinkles. Passing clouds.1 mph93%30.07 "HgN/A
4:50 PM39 °FSprinkles. Passing clouds.6 mph93%30.04 "HgN/A
4:20 PM39 °FBroken clouds.5 mph93%30.04 "HgN/A
3:50 PM39 °FPartly sunny.3 mph93%30.04 "HgN/A
3:20 PM39 °FBroken clouds.3 mph93%30.01 "HgN/A
2:50 PM39 °FBroken clouds.5 mph93%30.01 "HgN/A
2:20 PM37 °FBroken clouds.5 mph100%30.01 "HgN/A
1:50 PM37 °FDrizzle. Partly sunny.6 mph93%29.98 "Hg4 mi
1:20 PM39 °FLight rain. Partly sunny.9 mph93%29.98 "HgN/A
12:50 PM39 °FPartly sunny.7 mph93%29.98 "HgN/A
12:20 PM39 °FPartly sunny.8 mph93%29.98 "HgN/A
11:50 AM39 °FLight rain. Partly sunny.8 mph93%29.95 "HgN/A
11:20 AM37 °FLight rain. Partly sunny.10 mph100%29.95 "HgN/A
10:50 AM37 °FLight rain. Partly sunny.7 mph93%29.95 "Hg5 mi
10:20 AM37 °FLight rain. Partly sunny.8 mph93%29.95 "Hg6 mi
9:50 AM37 °FLight rain. Partly sunny.7 mph100%29.92 "Hg4 mi
9:20 AM37 °FLight rain. Broken clouds.6 mph93%29.92 "Hg5 mi
8:50 AM37 °FLight rain. Broken clouds.9 mph93%29.92 "Hg5 mi
8:20 AM37 °FLight rain. Broken clouds.9 mph93%29.89 "HgN/A
7:50 AM37 °FLight rain. Broken clouds.9 mph93%29.89 "HgN/A
7:20 AM37 °FLight rain. Partly cloudy.9 mph93%29.86 "HgN/A
6:50 AM37 °FPassing clouds.10 mph93%29.86 "HgN/A
6:20 AM37 °FPassing clouds.7 mph93%29.83 "HgN/A
5:50 AM37 °FPassing clouds.8 mph93%29.83 "HgN/A
5:20 AM37 °FLow clouds.8 mph93%29.83 "HgN/A
4:50 AM37 °FLow clouds.8 mph93%29.83 "HgN/A
4:20 AM37 °FLight rain. Low clouds.6 mph93%29.80 "HgN/A
3:50 AM37 °FPassing clouds.8 mph93%29.80 "HgN/A
3:20 AM37 °FPassing clouds.7 mph93%29.80 "HgN/A
2:50 AM37 °FPassing clouds.7 mph93%29.80 "HgN/A
2:20 AM37 °FPassing clouds.7 mph93%29.77 "HgN/A
1:20 AM37 °FPassing clouds.8 mph93%29.77 "HgN/A
12:50 AM37 °FPassing clouds.6 mph93%29.77 "HgN/A
12:20 AM37 °FPassing clouds.3 mph93%29.77 "HgN/A
11:50 PM
Wed, Nov 25
37 °FPassing clouds.2 mph93%29.74 "HgN/A
11:20 PM37 °FPassing clouds.3 mph93%29.74 "HgN/A
10:50 PM37 °FChilly.3 mph93%29.74 "HgN/A
10:20 PM37 °FPassing clouds.5 mph87%29.74 "HgN/A
9:50 PM37 °FPartly cloudy.3 mph87%29.74 "HgN/A
9:20 PM37 °FPartly cloudy.2 mph87%29.74 "HgN/A
8:50 PM36 °FPartly cloudy.1 mph93%29.74 "HgN/A
8:20 PM36 °FPartly cloudy.2 mph93%29.74 "HgN/A
7:50 PM37 °FPartly cloudy.1 mph87%29.74 "HgN/A
7:20 PM37 °FPartly cloudy.1 mph87%29.74 "HgN/A
Weather by CustomWeather, © 2015

See weather overviewHow to use our weather pages